DateTimeUTC,F1_A11,F1_S11,BsB_S11,BsG_S11,BsR_S11,BbsB_S11,BbsG_S11,BbsR_S11,BaB_A11,BaG_A11,BaR_A11,Tu_S11,T_S11,Uu_S11,U_S11,P_S11,T1_A11
2021-06-07T00:00:00Z,00000200,20000000,,,,,,,-000.00,-000.11,-000.11,17.9,24.8,05.0,03.3,0672.6,31.0
2021-06-07T00:01:00Z,00000200,20000000,,,,,,,0000.26,0000.09,0000.30,17.9,24.8,05.1,03.3,0672.6,31.0
2021-06-07T00:02:00Z,00000200,20000000,,,,,,,0000.02,-000.17,-000.22,17.9,24.9,05.1,03.3,0672.6,31.0
2021-06-07T00:03:00Z,00000200,60000000,,,,,,,0000.45,0000.23,0000.22,17.9,24.9,05.1,03.3,0672.6,31.0
2021-06-07T00:04:00Z,00000200,40000000,0002.56,0001.61,0000.63,0000.79,0000.25,0000.15,0000.17,0000.25,0000.32,18.0,24.6,05.1,03.4,0673.5,31.0
2021-06-07T00:05:00Z,00000200,00000000,0002.31,0001.41,0000.67,0000.25,0000.22,0000.36,0000.21,0000.75,0000.68,18.0,24.6,05.2,03.5,0673.5,31.0
2021-06-07T00:06:00Z,00000200,00000000,0001.68,0001.28,0000.91,0000.07,0000.44,0000.26,0000.48,0000.24,-000.30,18.0,24.6,05.3,03.6,0673.5,31.0
2021-06-07T00:07:00Z,00000200,00000000,0001.67,0001.26,0000.63,0000.29,0000.07,0000.39,0000.11,0000.13,0000.26,18.0,24.5,05.3,03.5,0673.5,31.0
2021-06-07T00:08:00Z,00000200,00000000,0001.79,0001.31,0000.88,0000.21,0000.18,0000.17,-000.05,0000.17,0000.18,18.0,24.5,05.1,03.4,0673.5,31.0
2021-06-07T00:09:00Z,00000200,00000000,0002.42,0001.00,0000.66,0000.26,0000.24,-000.29,0000.56,0000.02,0000.18,18.0,24.5,05.2,03.4,0673.5,31.0
2021-06-07T00:10:00Z,00000200,00000000,0001.79,0001.51,0000.43,0000.30,0000.31,0000.03,0000.16,0000.19,0000.55,18.0,24.5,05.1,03.4,0673.5,31.0
2021-06-07T00:11:00Z,00000200,00000000,0001.89,0001.42,0000.62,0000.24,0000.36,0000.33,0000.55,0000.41,-000.01,18.0,24.5,05.0,03.3,0673.5,31.0
2021-06-07T00:12:00Z,00000200,00000000,0002.25,0001.53,0001.10,0000.53,0000.28,0000.51,-000.24,0000.34,0000.12,18.0,24.5,05.0,03.3,0673.5,31.0
2021-06-07T00:13:00Z,00000200,00000000,0001.73,0001.22,0000.79,0000.16,0000.45,0000.08,0000.45,0000.15,0000.31,18.0,24.5,05.0,03.3,0673.5,31.0
2021-06-07T00:14:00Z,00000200,00000000,0002.19,0001.25,0000.47,0000.13,0000.13,0000.43,0000.10,0000.10,0000.05,18.0,24.5,05.0,03.3,0673.5,31.0
2021-06-07T00:15:00Z,00000200,00000000,0002.23,0001.47,0000.91,0000.32,0000.40,0000.43,0000.39,0000.19,0000.13,17.9,24.5,04.9,03.3,0673.5,31.0
2021-06-07T00:16:00Z,00000200,00000000,0001.58,0001.22,0000.82,0000.47,0000.28,0000.27,0000.54,0000.51,0000.54,17.9,24.4,04.9,03.3,0673.5,31.0
2021-06-07T00:17:00Z,00000200,00000000,0002.22,0001.43,0000.69,0000.22,0000.57,0000.34,0000.30,0000.29,0000.04,17.9,24.4,04.9,03.3,0673.6,31.0
2021-06-07T00:18:00Z,00000200,00000000,0002.28,0001.50,0000.43,0000.71,0000.24,-000.15,-000.07,-000.00,0000.03,17.9,24.4,04.8,03.2,0673.6,31.0
2021-06-07T00:19:00Z,00000200,00000000,0001.76,0001.59,0000.88,0000.59,0000.27,0000.55,0000.27,0000.38,0000.27,17.9,24.4,04.8,03.2,0673.6,31.0
2021-06-07T00:20:00Z,00000200,00000000,0001.59,0001.44,0000.78,-000.02,0000.11,0000.48,0000.40,-000.12,0000.28,17.9,24.4,04.8,03.2,0673.6,31.0
2021-06-07T00:21:00Z,00000200,00000000,0001.90,0001.51,0001.03,0000.28,0000.24,0000.28,0000.09,0000.98,0000.55,17.9,24.4,04.8,03.2,0673.6,31.0
2021-06-07T00:22:00Z,00000200,00000000,0002.01,0001.20,0000.75,0000.80,0000.40,0000.22,0000.24,-000.39,-000.16,17.9,24.4,04.8,03.2,0673.6,31.0
2021-06-07T00:23:00Z,00000200,00000000,0002.31,0001.32,0000.84,0000.22,0000.29,0000.84,0000.56,0000.62,0000.27,17.9,24.4,04.8,03.2,0673.6,31.0
2021-06-07T00:24:00Z,00000200,00000000,0002.21,0001.46,0000.43,0000.60,0000.22,0000.25,0000.12,0000.02,0000.02,17.9,24.4,04.8,03.2,0673.6,31.0
2021-06-07T00:25:00Z,00000200,00000000,0002.16,0001.36,0000.77,0000.14,0000.34,-000.08,0000.50,0000.42,0000.65,17.9,24.4,04.7,03.1,0673.6,31.0
2021-06-07T00:26:00Z,00000200,00000000,0001.93,0001.39,0000.89,0000.77,0000.34,0000.36,0000.39,0000.44,0000.16,17.9,24.4,04.8,03.2,0673.7,31.0
2021-06-07T00:27:00Z,00000200,00000000,0001.76,0001.36,0000.57,0000.87,0000.16,0000.41,0000.38,0000.32,0000.36,17.9,24.4,04.8,03.2,0673.7,31.0
2021-06-07T00:28:00Z,00000200,00000000,0001.26,0001.62,0000.58,0000.12,0000.21,0000.30,-000.15,-000.35,-000.28,17.9,24.4,04.7,03.1,0673.7,31.0
2021-06-07T00:29:00Z,00000200,00000000,0003.11,0001.50,0001.03,0000.33,0000.29,0000.36,0000.30,0000.60,0000.26,17.9,24.4,04.7,03.1,0673.7,31.0
2021-06-07T00:30:00Z,00000200,00000000,0002.03,0001.54,0000.57,0000.27,0000.45,0000.11,0000.56,0000.21,0000.52,17.9,24.3,04.6,03.1,0673.7,30.9
2021-06-07T00:31:00Z,00000200,00000000,0001.89,0001.40,0001.02,0000.60,0000.18,0000.38,-000.04,-000.04,-000.02,17.9,24.3,04.6,03.1,0673.7,30.9
2021-06-07T00:32:00Z,00000200,00000000,0002.28,0001.54,0000.82,0000.40,0000.25,0000.44,0000.18,0000.51,0000.29,17.8,24.3,04.6,03.1,0673.7,30.9
2021-06-07T00:33:00Z,00000200,00000000,0001.86,0001.28,0000.70,0000.78,0000.09,0000.27,0000.47,0000.38,0000.33,17.8,24.3,04.4,03.0,0673.7,31.0
2021-06-07T00:34:00Z,00000200,00000000,0001.91,0001.35,0000.64,0000.51,0000.22,0000.45,0000.18,0000.11,0000.12,17.8,24.3,04.5,03.0,0673.7,30.9
2021-06-07T00:35:00Z,00000200,00000000,0002.41,0001.81,0000.66,0000.39,0000.10,0000.55,0000.04,0000.46,0000.19,17.8,24.3,04.5,03.0,0673.7,30.9
2021-06-07T00:36:00Z,00000200,00000000,0002.05,0001.52,0000.72,0000.41,0000.02,0000.20,0000.72,0000.02,0000.10,17.8,24.3,04.4,02.9,0673.6,31.0
2021-06-07T00:37:00Z,00000200,00000000,0001.74,0001.50,0000.59,0000.40,0000.32,0000.32,0000.09,0000.07,0000.54,17.8,24.3,04.3,02.9,0673.6,30.9
2021-06-07T00:38:00Z,00000200,00000000,0001.89,0001.35,0000.71,0000.50,0000.08,0000.02,-000.09,0000.25,-000.15,17.8,24.3,04.3,02.9,0673.6,31.0
2021-06-07T00:39:00Z,00000200,00000000,0002.58,0001.58,0000.88,0000.16,0000.17,0000.38,0000.30,0000.33,0000.03,17.8,24.3,04.4,02.9,0673.6,30.9
2021-06-07T00:40:00Z,00000200,00000000,0002.13,0001.38,0000.53,0000.33,0000.25,0000.17,0000.16,-000.12,0000.44,17.8,24.3,04.1,02.8,0673.6,30.9
2021-06-07T00:41:00Z,00000200,00000000,0001.67,0001.80,0000.74,0000.71,0000.22,0000.12,0000.69,0000.59,0000.38,17.8,24.3,04.2,02.8,0673.6,30.9
2021-06-07T00:42:00Z,00000200,00000000,0002.27,0001.98,0000.96,0000.71,0000.40,0000.60,0000.29,0000.73,0000.37,17.8,24.3,04.2,02.8,0673.6,31.0
2021-06-07T00:43:00Z,00000200,00000000,0003.07,0002.03,0001.10,0000.49,0000.42,0000.38,0000.37,-000.09,0000.16,17.8,24.3,04.3,02.9,0673.6,30.9
2021-06-07T00:44:00Z,00000200,00000000,0003.57,0002.71,0001.28,0000.67,0000.14,0000.27,0000.31,0000.86,0000.66,17.7,24.3,04.2,02.8,0673.6,30.9
2021-06-07T00:45:00Z,00000200,00000000,0003.60,0002.68,0001.38,0000.21,0000.19,0000.47,0000.80,0000.43,0000.17,17.7,24.2,04.4,02.9,0673.6,30.9
2021-06-07T00:46:00Z,00000200,00000000,0004.65,0003.20,0001.85,0000.89,0000.36,0000.50,0000.38,0000.52,0000.40,17.7,24.2,04.4,03.0,0673.6,30.9
2021-06-07T00:47:00Z,00000200,00000000,0004.47,0003.26,0001.85,0000.87,0000.43,0000.33,0001.02,0000.59,0000.47,17.7,24.2,04.4,02.9,0673.6,30.9
2021-06-07T00:48:00Z,00000200,00000000,0005.58,0003.57,0002.24,0000.74,0000.44,0000.52,0000.62,0000.70,0000.72,17.7,24.2,04.6,03.1,0673.6,30.9
2021-06-07T00:49:00Z,00000200,00000000,0005.23,0004.05,0002.28,0000.90,0000.48,0000.49,0000.66,0000.67,0000.71,17.7,24.2,04.9,03.3,0673.6,30.9
2021-06-07T00:50:00Z,00000200,00000000,0005.97,0003.91,0002.39,0000.50,0000.54,0000.75,0000.72,0000.79,0000.48,17.7,24.2,05.0,03.4,0673.6,30.9
2021-06-07T00:51:00Z,00000200,00000000,0006.66,0004.43,0002.27,0000.32,0000.54,0000.55,0000.74,0000.50,0000.66,17.7,24.2,05.1,03.4,0673.6,30.9
2021-06-07T00:52:00Z,00000200,00000000,0006.32,0004.64,0002.28,0000.67,0000.57,0000.49,0000.65,0000.62,0000.43,17.7,24.2,05.1,03.4,0673.6,30.9
2021-06-07T00:53:00Z,00000200,00000000,0006.24,0004.36,0002.59,0001.47,0000.41,0000.68,0000.19,0000.57,0000.60,17.7,24.2,05.1,03.4,0673.6,30.9
2021-06-07T00:54:00Z,00000200,00000000,0006.18,0004.04,0002.15,0001.19,0000.68,0000.40,0000.47,0000.37,0000.14,17.7,24.2,05.1,03.4,0673.6,30.9
2021-06-07T00:55:00Z,00000200,00000000,0005.04,0003.55,0002.04,0000.73,0000.62,0000.63,0000.18,0000.04,0000.33,17.6,24.2,05.0,03.3,0673.6,30.9
2021-06-07T00:56:00Z,00000200,00000000,0004.84,0003.78,0001.86,0000.39,0000.19,0000.55,0000.82,0000.82,0000.37,17.6,24.2,05.0,03.4,0673.6,30.9
2021-06-07T00:57:00Z,00000200,40000000,,,,,,,0000.40,0000.34,0000.36,17.7,24.2,05.5,03.7,0673.5,31.0
2021-06-07T00:58:00Z,00000200,60000000,,,,,,,-000.11,-000.23,0000.08,17.4,24.3,05.1,03.3,0672.6,30.9
2021-06-07T00:59:00Z,00000200,20000000,,,,,,,0000.47,0000.41,0000.13,17.4,24.4,05.1,03.3,0672.5,30.9
